Regional Weather Roundup
Issued by NWS State College, PA

Home | Current Version | Previous Version | Graphics & Text | Print | Product List | Glossary On
Versions: 1 2 3 4 5 6 7 8 9 10 11 12 13 14 15 16 17 18 19 20 21 22 23 24 25 26 27 28 29 30 31 32 33 34 35 36 37 38 39 40 41 42 43 44 45 46 47 48 49 50
000
ASUS41 KCTP 122003
RWRCTP

REGIONAL WEATHER ROUNDUP
NATIONAL WEATHER SERVICE STATE COLLEGE PA
300 PM EST FRI FEB 12 2016

Note: "fair" indicates few or no clouds below 12,000 feet with no
significant weather and/or obstructions to visibility.

* = STATION THAT DOES NOT REPORT PRECIPITATION /E.G. RAIN...SNOW...ETC/
    THUNDER OR FOG.

PAZ002>004-007>009-013>016-020>023-029>032-122100-
WESTERN PENNSYLVANIA

CITY           SKY/WX    TMP DP  RH WIND       PRES   REMARKS
ERIE           CLOUDY    22   8  55 SW13G24   29.92F WCI  10
MEADVILLE      LGT SNOW  19   7  59 SW13G18   29.89F WCI   6
FRANKLIN*      CLOUDY    18   7  62 S10G16    29.91F WCI   6
NEW CASTLE     LGT SNOW  21  12  68 SW8       29.96F WCI  11
BEAVER COUNTY  LGT SNOW  19  12  73 SW10G16   29.96F WCI   8
BUTLER*        CLOUDY    18   9  68 SW12      29.99F WCI   5
PITTSBURGH INT FLURRIES  20   6  55 SW10      29.96F WCI   9
PITTSBURGH     CLOUDY    20  10  65 SW12      29.96F WCI   8
INDIANA*       MOSUNNY   16  12  86 SW8       29.98F FOG     WCI   5
LATROBE        LGT SNOW  18  14  86 SW8       29.99F WCI   7
WASHINGTON CO* CLOUDY    19  10  68 S8        29.98F WCI   9
$$

PAZ004>006-010>012-017>019-024>028-033>037-041-042-045-046-049>053-122100-
CENTRAL PENNSYLVANIA

CITY           SKY/WX    TMP DP  RH WIND       PRES   REMARKS
BRADFORD       LGT SNOW  15   5  64 SW13G18   29.82F WCI   1
DUBOIS         CLOUDY    14   8  77 SW12      29.89F HAZE    WCI   0
CLEARFIELD     LGT SNOW  17   8  67 SW9       29.93F WCI   6
JOHNSTOWN      SNOW      14   7  73 W7        29.87F VSB 1/2 WCI   4
ALTOONA        LGT SNOW  18  12  77 SW7       29.94F WCI   9
STATE COLLEGE  LGT SNOW  19   9  63 SW7       29.96F WCI  10
WILLIAMSPORT   FLURRIES  21   7  54 W3        30.01F
SELINSGROVE    PTSUNNY   22   5  48 S7        30.04F WCI  13
FT INDIANTOWN  CLOUDY    21   3  45 SW10      30.04F WCI  10
CAPITAL CITY   CLOUDY    24   4  42 VRB7      30.06F
HARRISBURG     CLOUDY    24   6  46 SW8       30.05F
YORK           CLOUDY    23   6  48 SW6       30.04F
$$

PAZ038>040-043-044-047-048-054-055-060>062-067>071-122100-
EASTERN PENNSYLVANIA

CITY           SKY/WX    TMP DP  RH WIND       PRES   REMARKS
SCRANTON       CLOUDY    19   4  51 SW10G18   29.97F WCI   7
MOUNT POCONO   CLOUDY    15   2  56 S12       29.89F WCI   2
ALLENTOWN      CLOUDY    22   5  48 SW10      30.06F WCI  11
QUAKERTOWN*    CLOUDY    21   3  45 W5        30.06F WCI  15
READING        MOSUNNY   22   5  48 W8        30.06F WCI  12
LANCASTER      CLOUDY    21   4  47 SW8       30.06F WCI  11
COATESVILLE    PTCLDY    21   5  49 VRB5      30.06F WCI  15
POTTSTOWN      CLOUDY    22   4  46 W6        30.08F WCI  14
BLUE BELL        N/A     23   5  46 W3        30.06F
DOYLESTOWN     CLOUDY    21   2  43 SW7       30.05F WCI  12
WILLOW GROVE   NOT AVBL
NORTH PHILA    CLOUDY    25   3  38 SW8       30.10F
PHILADELPHIA   CLOUDY    25   1  35 W6        30.10F
$$



USA.gov is the U.S. government's official web portal to all federal, state and local government web resources and services.